Volver al catálogo

ONEWEB-0700

ActivoComunicacionesPO
NORAD 61606·PAYLOAD·🇬🇧 United Kingdom

Lanzado Oct 20, 2024 desde Vandenberg Space Force Base

Loading…

Próximos Pases (próximas 24 horas)

TLE

ActualizadoSource: CelesTrak SupGP

Época: Sep 14, 2026, 10:03 UTC

1 61606C 24188N   26257.41891618 -.00002166  00000+0 -62120-2 0  2578
2 61606  87.8926  18.4223 0001352  85.7403 351.6886 13.10377814    12

Sigue ONEWEB-0700 en tiempo real con AllMySat

Download on the App Store